カタログに戻る

STARLINK-34334

運用中通信VLEO
NORAD 64273·PAYLOAD·🇺🇸 United States

打ち上げ Jun 4, 2025 から Vandenberg Space Force Base

Loading…

次のパス (今後24時間)

TLE

最新Source: CelesTrak SupGP

元期: Sep 15, 2026, 02:21 UTC

1 64273C 25120T   26258.09840278  .00045894  00000+0  13560-2 0  2587
2 64273  53.1575 314.6086 0001257  93.0387  61.8701 15.34366063    14

AllMySatでSTARLINK-34334をリアルタイム追跡

Download on the App Store